When you browse on this site, cookies collect data to enhance your experience and personalize the content and advertising you see.
Visit our Privacy Policy to learn more. By continuing to use the site, you agree to this use of cookies and data.
  • In Hungary
  • List of Countries
  • For 7 days
  • Water Temperature
  • Weather Map
  • News
  • Weather Widgets
  • user-avatar
    Login

    Hourly Weather Abu Road

    Today, 16 December, Monday

    Time Temperature Precipitation Wind Pressure Humidity
    00:00 +15°C° 0 mm 2 mps 740 mmHg 45%
    01:00 +15°C° 0 mm 2 mps 740 mmHg 46%
    02:00 +14°C° 0 mm 2 mps 740 mmHg 47%
    03:00 +14°C° 0 mm 2 mps 739 mmHg 48%
    04:00 +14°C° 0 mm 2 mps 739 mmHg 49%
    05:00 +12°C° 0 mm 3 mps 739 mmHg 50%
    06:00 +13°C° 0 mm 3 mps 740 mmHg 50%
    07:00 +13°C° 0 mm 3 mps 740 mmHg 49%
    08:00 +14°C° 0 mm 3 mps 741 mmHg 48%
    09:00 +17°C° 0 mm 3 mps 741 mmHg 42%
    10:00 +20°C° 0 mm 3 mps 741 mmHg 35%
    11:00 +22°C° 0 mm 4 mps 741 mmHg 28%
    12:00 +23°C° 0 mm 4 mps 741 mmHg 26%
    13:00 +25°C° 0 mm 4 mps 740 mmHg 25%
    14:00 +26°C° 0 mm 4 mps 739 mmHg 23%
    15:00 +23°C° 0 mm 4 mps 739 mmHg 27%
    16:00 +22°C° 0 mm 3 mps 739 mmHg 30%
    17:00 +21°C° 0 mm 3 mps 739 mmHg 33%
    18:00 +19°C° 0 mm 3 mps 739 mmHg 35%
    19:00 +18°C° 0 mm 3 mps 740 mmHg 37%
    20:00 +16°C° 0 mm 3 mps 740 mmHg 39%
    21:00 +16°C° 0 mm 3 mps 740 mmHg 40%
    22:00 +14°C° 0 mm 3 mps 740 mmHg 42%
    23:00 +14°C° 0 mm 3 mps 740 mmHg 43%

    Tomorrow, 17 December, Tuesday

    Time Temperature Precipitation Wind Pressure Humidity
    00:00 +13°C° 0 mm 3 mps 740 mmHg 44%
    01:00 +13°C° 0 mm 3 mps 740 mmHg 45%
    02:00 +12°C° 0 mm 3 mps 740 mmHg 46%
    03:00 +12°C° 0 mm 3 mps 740 mmHg 46%
    04:00 +12°C° 0 mm 3 mps 740 mmHg 47%
    05:00 +11°C° 0 mm 3 mps 740 mmHg 47%
    06:00 +12°C° 0 mm 3 mps 741 mmHg 46%
    07:00 +13°C° 0 mm 3 mps 742 mmHg 45%
    08:00 +13°C° 0 mm 3 mps 742 mmHg 44%
    09:00 +17°C° 0 mm 3 mps 743 mmHg 37%
    10:00 +19°C° 0 mm 3 mps 743 mmHg 30%
    11:00 +22°C° 0 mm 3 mps 743 mmHg 23%
    12:00 +24°C° 0 mm 3 mps 742 mmHg 22%
    13:00 +24°C° 0 mm 3 mps 741 mmHg 20%
    14:00 +25°C° 0 mm 3 mps 740 mmHg 18%
    15:00 +24°C° 0 mm 3 mps 740 mmHg 21%
    16:00 +22°C° 0 mm 3 mps 740 mmHg 25%
    17:00 +20°C° 0 mm 3 mps 739 mmHg 28%
    18:00 +19°C° 0 mm 3 mps 740 mmHg 29%
    19:00 +17°C° 0 mm 3 mps 740 mmHg 30%
    20:00 +16°C° 0 mm 3 mps 740 mmHg 32%
    21:00 +14°C° 0 mm 3 mps 740 mmHg 33%
    22:00 +14°C° 0 mm 3 mps 740 mmHg 34%
    23:00 +13°C° 0 mm 3 mps 740 mmHg 35%

    Day after tomorrow, 18 December, Wednesday

    Time Temperature Precipitation Wind Pressure Humidity
    00:00 +13°C° 0 mm 3 mps 740 mmHg 35%
    01:00 +14°C° 0 mm 2 mps 740 mmHg 35%
    02:00 +14°C° 0 mm 2 mps 739 mmHg 36%
    03:00 +13°C° 0 mm 2 mps 739 mmHg 36%
    04:00 +13°C° 0 mm 2 mps 739 mmHg 36%
    05:00 +13°C° 0 mm 2 mps 739 mmHg 36%
    06:00 +13°C° 0 mm 2 mps 740 mmHg 36%
    07:00 +14°C° 0 mm 2 mps 740 mmHg 36%
    08:00 +15°C° 0 mm 2 mps 741 mmHg 36%
    09:00 +18°C° 0 mm 2 mps 741 mmHg 31%
    10:00 +21°C° 0 mm 1 mps 741 mmHg 26%
    11:00 +24°C° 0 mm 1 mps 741 mmHg 21%
    12:00 +25°C° 0 mm 1 mps 740 mmHg 20%
    13:00 +26°C° 0 mm 1 mps 739 mmHg 18%
    14:00 +27°C° 0 mm 1 mps 738 mmHg 17%
    15:00 +26°C° 0 mm 1 mps 738 mmHg 20%
    16:00 +24°C° 0 mm 1 mps 738 mmHg 22%
    17:00 +23°C° 0 mm 2 mps 737 mmHg 25%
    18:00 +21°C° 0 mm 2 mps 738 mmHg 26%
    19:00 +19°C° 0 mm 2 mps 738 mmHg 26%
    20:00 +18°C° 0 mm 2 mps 739 mmHg 27%
    21:00 +17°C° 0 mm 2 mps 739 mmHg 27%
    22:00 +17°C° 0 mm 2 mps 739 mmHg 27%
    23:00 +16°C° 0 mm 2 mps 739 mmHg 27%

    19 December, Thursday

    Time Temperature Precipitation Wind Pressure Humidity
    00:00 +16°C° 0 mm 2 mps 738 mmHg 28%
    01:00 +16°C° 0 mm 2 mps 738 mmHg 29%
    02:00 +16°C° 0 mm 1 mps 738 mmHg 29%
    03:00 +15°C° 0 mm 1 mps 738 mmHg 30%
    04:00 +15°C° 0 mm 1 mps 738 mmHg 31%
    05:00 +15°C° 0 mm 1 mps 737 mmHg 31%
    06:00 +16°C° 0 mm 1 mps 738 mmHg 32%
    07:00 +18°C° 0 mm 1 mps 739 mmHg 33%
    08:00 +19°C° 0 mm 1 mps 739 mmHg 33%
    09:00 +21°C° 0 mm 1 mps 739 mmHg 29%
    10:00 +24°C° 0 mm 1 mps 739 mmHg 25%
    11:00 +26°C° 0 mm 1 mps 739 mmHg 21%
    12:00 +27°C° 0 mm 1 mps 739 mmHg 19%
    13:00 +28°C° 0 mm 1 mps 738 mmHg 18%
    14:00 +29°C° 0 mm 1 mps 737 mmHg 17%
    15:00 +27°C° 0 mm 1 mps 737 mmHg 19%
    16:00 +26°C° 0 mm 1 mps 736 mmHg 22%
    17:00 +25°C° 0 mm 1 mps 736 mmHg 25%
    18:00 +24°C° 0 mm 1 mps 736 mmHg 25%
    19:00 +22°C° 0 mm 1 mps 737 mmHg 24%
    20:00 +21°C° 0 mm 1 mps 737 mmHg 24%
    21:00 +21°C° 0 mm 1 mps 737 mmHg 24%
    22:00 +20°C° 0 mm 1 mps 737 mmHg 24%
    23:00 +20°C° 0 mm 1 mps 737 mmHg 24%

    20 December, Friday

    Time Temperature Precipitation Wind Pressure Humidity
    00:00 +20°C° 0 mm 1 mps 736 mmHg 25%
    01:00 +20°C° 0 mm 1 mps 736 mmHg 25%
    02:00 +19°C° 0 mm 1 mps 736 mmHg 26%
    03:00 +19°C° 0 mm 1 mps 736 mmHg 27%
    04:00 +19°C° 0 mm 1 mps 735 mmHg 27%
    05:00 +19°C° 0 mm 1 mps 735 mmHg 28%
    06:00 +20°C° 0 mm 1 mps 736 mmHg 29%
    07:00 +21°C° 0 mm 1 mps 736 mmHg 31%
    08:00 +21°C° 0 mm 1 mps 737 mmHg 32%
    09:00 +23°C° 0 mm 1 mps 737 mmHg 28%
    10:00 +26°C° 0 mm 1 mps 737 mmHg 25%
    11:00 +28°C° 0 mm 1 mps 737 mmHg 21%
    12:00 +28°C° 0 mm 1 mps 736 mmHg 21%
    13:00 +29°C° 0 mm 1 mps 736 mmHg 21%
    14:00 +30°C° 0 mm 2 mps 735 mmHg 21%
    15:00 +28°C° 0 mm 2 mps 735 mmHg 24%
    16:00 +27°C° 0 mm 2 mps 735 mmHg 27%
    17:00 +26°C° 0 mm 1 mps 734 mmHg 30%
    18:00 +25°C° 0 mm 1 mps 735 mmHg 31%
    19:00 +24°C° 0 mm 1 mps 735 mmHg 32%
    20:00 +23°C° 0 mm 1 mps 735 mmHg 33%
    21:00 +22°C° 0 mm 1 mps 736 mmHg 33%
    22:00 +22°C° 0 mm 1 mps 736 mmHg 33%
    23:00 +21°C° 0 mm 1 mps 736 mmHg 34%

    21 December, Saturday

    Time Temperature Precipitation Wind Pressure Humidity
    00:00 +21°C° 0 mm 1 mps 735 mmHg 34%
    01:00 +20°C° 0 mm 1 mps 735 mmHg 35%
    02:00 +20°C° 0 mm 1 mps 735 mmHg 36%
    03:00 +20°C° 0 mm 1 mps 735 mmHg 36%
    04:00 +19°C° 0 mm 1 mps 735 mmHg 37%
    05:00 +19°C° 0 mm 1 mps 735 mmHg 37%
    06:00 +20°C° 0 mm 1 mps 735 mmHg 37%
    07:00 +21°C° 0 mm 1 mps 736 mmHg 38%
    08:00 +22°C° 0 mm 1 mps 736 mmHg 38%
    09:00 +24°C° 0 mm 1 mps 736 mmHg 34%
    10:00 +26°C° 0 mm 1 mps 737 mmHg 31%
    11:00 +28°C° 0 mm 1 mps 737 mmHg 27%
    12:00 +28°C° 0 mm 1 mps 736 mmHg 28%
    13:00 +29°C° 0 mm 2 mps 736 mmHg 28%
    14:00 +29°C° 0 mm 2 mps 735 mmHg 29%
    15:00 +28°C° 0 mm 2 mps 735 mmHg 31%
    16:00 +27°C° 0 mm 2 mps 735 mmHg 34%
    17:00 +26°C° 0 mm 2 mps 735 mmHg 37%
    18:00 +25°C° 0 mm 2 mps 735 mmHg 39%
    19:00 +23°C° 0 mm 2 mps 735 mmHg 40%
    20:00 +21°C° 0 mm 2 mps 736 mmHg 42%
    21:00 +20°C° 0 mm 2 mps 736 mmHg 43%
    22:00 +19°C° 0 mm 2 mps 736 mmHg 45%
    23:00 +19°C° 0 mm 2 mps 736 mmHg 46%
    Show more